TimeCST,TemperatureF,Dew PointF,Humidity,Sea Level PressureIn,VisibilityMPH,Wind Direction,Wind SpeedMPH,Gust SpeedMPH,PrecipitationIn,Events,Conditions,WindDirDegrees,DateUTC
12:14 AM,17.6,14.0,86,29.70,7.0,WSW,3.5,-,N/A,Snow,Light Snow,250,2012-11-12 06:14:00
12:54 AM,17.6,14.0,86,29.70,7.0,WSW,3.5,-,N/A,Snow,Light Snow,250,2012-11-12 06:54:00
1:14 AM,17.6,14.0,86,29.70,4.0,WSW,3.5,-,N/A,Snow,Light Snow,240,2012-11-12 07:14:00
1:34 AM,17.6,14.0,86,29.69,4.0,WSW,3.5,-,N/A,Snow,Light Snow,240,2012-11-12 07:34:00
1:53 AM,17.6,14.0,86,29.70,3.0,Calm,Calm,-,N/A,Snow,Light Snow,0,2012-11-12 07:53:00
2:14 AM,17.6,14.0,86,29.70,2.5,WSW,3.5,-,N/A,Snow,Light Snow,240,2012-11-12 08:14:00
2:34 AM,17.6,12.2,79,29.70,3.0,WSW,3.5,-,N/A,Snow,Light Snow,240,2012-11-12 08:34:00
2:53 AM,17.6,12.2,79,29.70,3.0,WSW,4.6,-,N/A,Snow,Light Snow,240,2012-11-12 08:53:00
3:14 AM,17.6,12.2,79,29.70,3.0,WSW,3.5,-,N/A,Snow,Light Snow,240,2012-11-12 09:14:00
3:34 AM,17.6,12.2,79,29.71,1.5,Calm,Calm,-,N/A,Snow,Light Snow,0,2012-11-12 09:34:00
3:53 AM,17.6,12.2,79,29.70,2.0,WSW,3.5,-,N/A,Snow,Light Snow,240,2012-11-12 09:53:00
4:14 AM,17.6,14.0,86,29.71,3.0,WSW,3.5,-,N/A,Snow,Light Snow,250,2012-11-12 10:14:00
4:34 AM,17.6,14.0,86,29.71,7.0,WSW,3.5,-,N/A,Snow,Light Snow,250,2012-11-12 10:34:00
4:54 AM,17.6,14.0,86,29.72,7.0,Calm,Calm,-,N/A,Snow,Light Snow,0,2012-11-12 10:54:00
5:14 AM,17.6,14.0,86,29.72,5.0,WSW,3.5,-,N/A,Snow,Light Snow,250,2012-11-12 11:14:00
5:34 AM,17.6,14.0,86,29.73,4.0,WSW,3.5,-,N/A,Snow,Light Snow,250,2012-11-12 11:34:00
5:54 AM,17.6,14.0,86,29.73,4.0,West,3.5,-,N/A,Snow,Light Snow,260,2012-11-12 11:54:00
6:13 AM,17.6,15.8,93,29.73,4.0,West,3.5,-,N/A,Snow,Light Snow,260,2012-11-12 12:13:00
6:54 AM,19.4,15.8,86,29.75,7.0,West,3.5,-,N/A,Snow,Light Snow,260,2012-11-12 12:54:00
7:14 AM,19.4,15.8,86,29.76,7.0,West,3.5,-,N/A,Snow,Light Snow,260,2012-11-12 13:14:00
7:34 AM,19.4,15.8,86,29.77,5.0,West,3.5,-,N/A,Snow,Light Snow,260,2012-11-12 13:34:00
7:54 AM,19.4,15.8,86,29.77,7.0,West,4.6,-,N/A,Snow,Light Snow,270,2012-11-12 13:54:00
8:14 AM,19.4,15.8,86,29.78,7.0,West,3.5,-,N/A,Snow,Light Snow,270,2012-11-12 14:14:00
8:34 AM,19.4,17.6,93,29.79,3.0,West,3.5,-,N/A,Snow,Light Snow,270,2012-11-12 14:34:00
8:54 AM,21.2,17.6,86,29.80,3.0,West,4.6,-,N/A,Snow,Light Snow,280,2012-11-12 14:54:00
9:14 AM,21.2,17.6,86,29.81,2.5,West,5.8,-,N/A,Snow,Light Snow,280,2012-11-12 15:14:00
9:34 AM,21.2,17.6,86,29.82,3.0,West,5.8,-,N/A,Snow,Light Snow,280,2012-11-12 15:34:00
9:54 AM,21.2,17.6,86,29.82,3.0,WNW,5.8,-,N/A,Snow,Light Snow,290,2012-11-12 15:54:00
10:14 AM,21.2,17.6,86,29.83,5.0,WNW,4.6,-,N/A,Snow,Light Snow,290,2012-11-12 16:14:00
10:34 AM,21.2,17.6,86,29.84,10.0,WNW,5.8,-,N/A,,Overcast,290,2012-11-12 16:34:00
10:54 AM,21.2,17.6,86,29.85,7.0,WNW,6.9,-,N/A,,Overcast,290,2012-11-12 16:54:00
11:14 AM,21.2,19.4,93,29.87,7.0,WNW,6.9,-,N/A,,Overcast,290,2012-11-12 17:14:00
11:34 AM,23.0,19.4,86,29.87,7.0,WNW,6.9,-,N/A,,Overcast,300,2012-11-12 17:34:00
11:54 AM,23.0,19.4,86,29.87,10.0,WNW,5.8,-,N/A,,Overcast,290,2012-11-12 17:54:00
12:14 PM,23.0,19.4,86,29.88,10.0,WNW,5.8,-,N/A,,Overcast,290,2012-11-12 18:14:00
12:34 PM,23.0,19.4,86,29.89,10.0,WNW,6.9,-,N/A,,Overcast,300,2012-11-12 18:34:00
12:54 PM,23.0,19.4,86,29.90,10.0,West,5.8,-,N/A,,Overcast,280,2012-11-12 18:54:00
1:14 PM,24.8,19.4,80,29.91,10.0,West,6.9,-,N/A,,Overcast,280,2012-11-12 19:14:00
1:34 PM,23.0,19.4,86,29.92,10.0,WNW,5.8,-,N/A,,Overcast,290,2012-11-12 19:34:00
1:54 PM,23.0,19.4,86,29.93,10.0,WNW,5.8,-,N/A,,Overcast,290,2012-11-12 19:54:00
2:14 PM,24.8,19.4,80,29.93,10.0,WNW,6.9,-,N/A,,Overcast,290,2012-11-12 20:14:00
2:53 PM,24.8,19.4,80,29.95,10.0,WNW,3.5,-,N/A,,Overcast,290,2012-11-12 20:53:00
3:14 PM,24.8,19.4,80,29.96,10.0,West,5.8,-,N/A,,Overcast,280,2012-11-12 21:14:00
3:34 PM,23.0,19.4,86,29.98,10.0,WNW,5.8,-,N/A,,Overcast,290,2012-11-12 21:34:00
3:54 PM,23.0,19.4,86,29.99,10.0,West,3.5,-,N/A,,Overcast,280,2012-11-12 21:54:00
4:34 PM,23.0,19.4,86,30.01,10.0,West,3.5,-,N/A,,Overcast,270,2012-11-12 22:34:00
4:54 PM,23.0,19.4,86,30.02,10.0,West,3.5,-,N/A,,Overcast,270,2012-11-12 22:54:00
5:14 PM,21.2,17.6,86,30.04,10.0,West,3.5,-,N/A,,Overcast,260,2012-11-12 23:14:00
5:34 PM,21.2,17.6,86,30.05,10.0,West,4.6,-,N/A,,Overcast,260,2012-11-12 23:34:00
5:54 PM,21.2,17.6,86,30.05,10.0,West,4.6,-,N/A,,Overcast,260,2012-11-12 23:54:00
6:14 PM,21.2,17.6,86,30.06,10.0,WSW,3.5,-,N/A,,Overcast,250,2012-11-13 00:14:00
6:54 PM,21.2,17.6,86,30.07,10.0,WSW,5.8,-,N/A,,Overcast,250,2012-11-13 00:54:00
7:14 PM,19.4,15.8,86,30.08,10.0,WSW,5.8,-,N/A,,Overcast,250,2012-11-13 01:14:00
7:33 PM,19.4,15.8,86,30.08,10.0,WSW,4.6,-,N/A,,Overcast,250,2012-11-13 01:33:00
7:54 PM,17.6,14.0,86,30.09,10.0,WSW,3.5,-,N/A,,Overcast,240,2012-11-13 01:54:00
8:14 PM,17.6,14.0,86,30.09,10.0,WSW,4.6,-,N/A,,Overcast,240,2012-11-13 02:14:00
8:33 PM,17.6,12.2,79,30.10,10.0,WSW,5.8,-,N/A,,Overcast,250,2012-11-13 02:33:00
8:54 PM,17.6,12.2,79,30.10,10.0,Calm,Calm,-,N/A,,Mostly Cloudy,0,2012-11-13 02:54:00
9:14 PM,15.8,12.2,86,30.10,10.0,Calm,Calm,-,N/A,,Scattered Clouds,0,2012-11-13 03:14:00
9:33 PM,15.8,10.4,79,30.10,10.0,Calm,Calm,-,N/A,,Clear,0,2012-11-13 03:33:00
9:54 PM,15.8,10.4,79,30.11,10.0,Calm,Calm,-,N/A,,Clear,0,2012-11-13 03:54:00
10:14 PM,15.8,10.4,79,30.10,10.0,Calm,Calm,-,N/A,,Scattered Clouds,0,2012-11-13 04:14:00
10:33 PM,14.0,10.4,86,30.11,10.0,Calm,Calm,-,N/A,,Scattered Clouds,0,2012-11-13 04:33:00
10:54 PM,15.8,10.4,79,30.11,10.0,Calm,Calm,-,N/A,,Clear,0,2012-11-13 04:54:00
11:14 PM,15.8,10.4,79,30.11,10.0,SW,3.5,-,N/A,,Scattered Clouds,220,2012-11-13 05:14:00
11:33 PM,15.8,12.2,86,30.12,10.0,SW,3.5,-,N/A,,Mostly Cloudy,220,2012-11-13 05:33:00
11:54 PM,15.8,12.2,86,30.12,10.0,SW,4.6,-,N/A,,Mostly Cloudy,220,2012-11-13 05:54:00